• In France
  • List of Countries
  • For 7 days
  • Water Temperature
  • Satellite Maps
  • Weather Map
  • Weather Widgets
  • user-avatar
    Login

    Hourly Weather Swalbard

    Today, 25 February, Sunday

    Time Temperature Precipitation Wind Pressure Humidity
    00:00 -10°C° 0 mm 4 mps 781 mmHg 87%
    01:00 -10°C° 0 mm 3 mps 781 mmHg 88%
    02:00 -9°C° 0 mm 3 mps 781 mmHg 89%
    03:00 -10°C° 0 mm 4 mps 780 mmHg 89%
    04:00 -9°C° 0 mm 4 mps 780 mmHg 90%
    05:00 -8°C° 0 mm 4 mps 779 mmHg 90%
    06:00 -7°C° 0 mm 5 mps 779 mmHg 90%
    07:00 -7°C° 0 mm 5 mps 779 mmHg 90%
    08:00 -6°C° 0 mm 5 mps 779 mmHg 90%
    09:00 -6°C° 0 mm 6 mps 779 mmHg 89%
    10:00 -5°C° 0 mm 6 mps 778 mmHg 89%
    11:00 -5°C° 0 mm 6 mps 778 mmHg 89%
    12:00 -6°C° 0 mm 7 mps 778 mmHg 88%
    13:00 -6°C° 0 mm 7 mps 777 mmHg 88%
    14:00 -6°C° 0.1 mm 7 mps 777 mmHg 88%
    15:00 -6°C° 0.1 mm 7 mps 777 mmHg 88%
    16:00 -6°C° 0.1 mm 7 mps 776 mmHg 89%
    17:00 -4°C° 0.2 mm 7 mps 776 mmHg 89%
    18:00 -4°C° 0.2 mm 7 mps 776 mmHg 90%
    19:00 -3°C° 0.2 mm 7 mps 776 mmHg 91%
    20:00 -3°C° 0.1 mm 7 mps 776 mmHg 92%
    21:00 -3°C° 0.1 mm 7 mps 776 mmHg 93%
    22:00 -2°C° 0.1 mm 7 mps 776 mmHg 94%
    23:00 -2°C° 0.1 mm 7 mps 776 mmHg 95%

    Tomorrow, 26 February, Monday

    Time Temperature Precipitation Wind Pressure Humidity
    00:00 -2°C° 0.1 mm 7 mps 776 mmHg 95%
    01:00 -1°C° 0.1 mm 7 mps 776 mmHg 96%
    02:00 -1°C° 0.1 mm 7 mps 776 mmHg 96%
    03:00 -1°C° 0.1 mm 7 mps 776 mmHg 96%
    04:00 -1°C° 0.1 mm 7 mps 776 mmHg 96%
    05:00 -1°C° 0.1 mm 7 mps 776 mmHg 96%
    06:00 -1°C° 0.1 mm 6 mps 776 mmHg 96%
    07:00 -1°C° 0.1 mm 6 mps 776 mmHg 96%
    08:00 +1°C° 0.1 mm 6 mps 776 mmHg 96%
    09:00 +1°C° 0.1 mm 6 mps 776 mmHg 96%
    10:00 0°C° 0.1 mm 7 mps 776 mmHg 96%
    11:00 0°C° 0.4 mm 7 mps 776 mmHg 96%
    12:00 0°C° 0.4 mm 7 mps 776 mmHg 96%
    13:00 0°C° 0.4 mm 7 mps 776 mmHg 96%
    14:00 0°C° 0.6 mm 7 mps 775 mmHg 96%
    15:00 0°C° 0.6 mm 8 mps 775 mmHg 95%
    16:00 0°C° 0.6 mm 8 mps 774 mmHg 95%
    17:00 0°C° 0.7 mm 8 mps 774 mmHg 95%
    18:00 0°C° 0.7 mm 8 mps 774 mmHg 95%
    19:00 0°C° 0.7 mm 9 mps 773 mmHg 95%
    20:00 0°C° 0.2 mm 10 mps 773 mmHg 94%
    21:00 -2°C° 0.2 mm 11 mps 772 mmHg 92%
    22:00 -2°C° 0.2 mm 12 mps 772 mmHg 91%
    23:00 -2°C° 0.1 mm 11 mps 771 mmHg 91%

    Day after tomorrow, 27 February, Tuesday

    Time Temperature Precipitation Wind Pressure Humidity
    00:00 -2°C° 0.1 mm 10 mps 771 mmHg 91%
    01:00 -2°C° 0.1 mm 10 mps 770 mmHg 92%
    02:00 -1°C° 0.2 mm 9 mps 770 mmHg 93%
    03:00 -1°C° 0.2 mm 9 mps 769 mmHg 94%
    04:00 -1°C° 0.2 mm 8 mps 769 mmHg 95%
    05:00 -1°C° 0.2 mm 8 mps 768 mmHg 95%
    06:00 -1°C° 0.2 mm 8 mps 768 mmHg 96%
    07:00 0°C° 0.2 mm 8 mps 767 mmHg 97%
    08:00 0°C° 0.2 mm 8 mps 767 mmHg 96%
    09:00 0°C° 0.2 mm 8 mps 767 mmHg 96%
    10:00 0°C° 0.2 mm 8 mps 766 mmHg 96%
    11:00 0°C° 0.2 mm 8 mps 766 mmHg 96%
    12:00 -1°C° 0.2 mm 8 mps 765 mmHg 95%
    13:00 -1°C° 0.2 mm 9 mps 764 mmHg 95%
    14:00 -1°C° 0.4 mm 9 mps 763 mmHg 95%
    15:00 -1°C° 0.4 mm 9 mps 761 mmHg 94%
    16:00 -1°C° 0.4 mm 9 mps 760 mmHg 94%
    17:00 -2°C° 1.2 mm 11 mps 758 mmHg 94%
    18:00 -2°C° 1.2 mm 12 mps 757 mmHg 93%
    19:00 -1°C° 1.2 mm 14 mps 756 mmHg 92%
    20:00 -2°C° 0.5 mm 12 mps 756 mmHg 92%
    21:00 -2°C° 0.5 mm 11 mps 756 mmHg 92%
    22:00 -1°C° 0.5 mm 9 mps 757 mmHg 92%
    23:00 -2°C° 0 mm 8 mps 758 mmHg 91%

    28 February, Wednesday

    Time Temperature Precipitation Wind Pressure Humidity
    00:00 -3°C° 0 mm 7 mps 760 mmHg 90%
    01:00 -4°C° 0 mm 5 mps 761 mmHg 89%
    02:00 -6°C° 0 mm 5 mps 763 mmHg 87%
    03:00 -8°C° 0 mm 5 mps 764 mmHg 85%
    04:00 -11°C° 0 mm 5 mps 765 mmHg 83%
    05:00 -12°C° 0 mm 5 mps 767 mmHg 83%
    06:00 -12°C° 0 mm 4 mps 768 mmHg 83%
    07:00 -12°C° 0 mm 4 mps 769 mmHg 83%
    08:00 -14°C° 0 mm 4 mps 770 mmHg 82%
    09:00 -15°C° 0 mm 4 mps 771 mmHg 82%
    10:00 -15°C° 0 mm 4 mps 772 mmHg 82%
    11:00 -15°C° 0 mm 3 mps 772 mmHg 82%
    12:00 -16°C° 0 mm 3 mps 773 mmHg 82%
    13:00 -16°C° 0 mm 3 mps 773 mmHg 82%
    14:00 -16°C° 0 mm 3 mps 774 mmHg 82%
    15:00 -16°C° 0 mm 2 mps 774 mmHg 82%
    16:00 -16°C° 0 mm 2 mps 774 mmHg 82%
    17:00 -16°C° 0 mm 2 mps 774 mmHg 82%
    18:00 -17°C° 0 mm 3 mps 774 mmHg 81%
    19:00 -17°C° 0 mm 3 mps 775 mmHg 81%
    20:00 -17°C° 0 mm 3 mps 775 mmHg 82%
    21:00 -16°C° 0 mm 3 mps 775 mmHg 83%
    22:00 -16°C° 0 mm 3 mps 775 mmHg 84%
    23:00 -16°C° 0 mm 3 mps 775 mmHg 84%

    1 March, Thursday

    Time Temperature Precipitation Wind Pressure Humidity
    00:00 -16°C° 0 mm 3 mps 775 mmHg 85%
    01:00 -16°C° 0 mm 3 mps 776 mmHg 85%
    02:00 -16°C° 0 mm 3 mps 776 mmHg 86%
    03:00 -17°C° 0 mm 3 mps 776 mmHg 86%
    04:00 -17°C° 0 mm 3 mps 776 mmHg 86%
    05:00 -16°C° 0 mm 2 mps 776 mmHg 87%
    06:00 -16°C° 0 mm 2 mps 776 mmHg 87%
    07:00 -17°C° 0 mm 2 mps 776 mmHg 88%
    08:00 -17°C° 0 mm 2 mps 777 mmHg 88%
    09:00 -17°C° 0 mm 2 mps 777 mmHg 87%
    10:00 -15°C° 0 mm 1 mps 777 mmHg 87%
    11:00 -17°C° 0 mm 2 mps 777 mmHg 87%
    12:00 -18°C° 0 mm 2 mps 777 mmHg 88%
    13:00 -18°C° 0 mm 2 mps 777 mmHg 88%
    14:00 -18°C° 0 mm 2 mps 777 mmHg 88%
    15:00 -19°C° 0 mm 2 mps 777 mmHg 89%
    16:00 -19°C° 0 mm 2 mps 777 mmHg 90%
    17:00 -19°C° 0 mm 2 mps 777 mmHg 90%
    18:00 -20°C° 0 mm 2 mps 777 mmHg 90%
    19:00 -18°C° 0 mm 1 mps 777 mmHg 90%
    20:00 -18°C° 0 mm 1 mps 778 mmHg 90%
    21:00 -18°C° 0 mm 1 mps 778 mmHg 90%
    22:00 -18°C° 0 mm 1 mps 778 mmHg 90%
    23:00 -18°C° 0 mm 1 mps 778 mmHg 90%

    2 March, Friday

    Time Temperature Precipitation Wind Pressure Humidity
    00:00 -18°C° 0 mm 1 mps 778 mmHg 90%
    01:00 -18°C° 0 mm 1 mps 777 mmHg 90%
    02:00 -18°C° 0 mm 1 mps 777 mmHg 90%
    03:00 -18°C° 0 mm 1 mps 777 mmHg 90%
    04:00 -18°C° 0 mm 1 mps 777 mmHg 90%
    05:00 -18°C° 0 mm 1 mps 777 mmHg 91%
    06:00 -18°C° 0 mm 1 mps 777 mmHg 91%
    07:00 -19°C° 0 mm 2 mps 776 mmHg 91%
    08:00 -19°C° 0 mm 2 mps 776 mmHg 91%
    09:00 -19°C° 0 mm 2 mps 776 mmHg 90%
    10:00 -18°C° 0 mm 2 mps 776 mmHg 89%
    11:00 -18°C° 0 mm 2 mps 776 mmHg 88%
    12:00 -18°C° 0 mm 2 mps 776 mmHg 87%
    13:00 -18°C° 0 mm 2 mps 776 mmHg 87%
    14:00 -18°C° 0 mm 2 mps 776 mmHg 87%
    15:00 -18°C° 0 mm 2 mps 776 mmHg 87%
    16:00 -18°C° 0 mm 2 mps 776 mmHg 87%
    17:00 -18°C° 0 mm 2 mps 776 mmHg 87%
    18:00 -19°C° 0 mm 2 mps 776 mmHg 87%
    19:00 -19°C° 0 mm 2 mps 776 mmHg 88%
    20:00 -19°C° 0 mm 2 mps 776 mmHg 88%
    21:00 -19°C° 0 mm 2 mps 776 mmHg 88%
    22:00 -19°C° 0 mm 2 mps 776 mmHg 88%
    23:00 -19°C° 0 mm 2 mps 776 mmHg 88%
    Show more